Weather History for Jaipur, India

Change the Weather History Date:

Thursday, September 20, 2012

  Actual Average Record
Temperature  
Mean Temperature 84 °F -  
Max Temperature 93 °F - - ()
Min Temperature 75 °F - - ()
Cooling Degree Days 19    
Growing Degree Days 34 (Base 50)    
Moisture  
Dew Point 73 °F    
Average Humidity 72    
Maximum Humidity 100    
Minimum Humidity 31    
Precipitation  
Precipitation 0.00 in - - ()
Sea Level Pressure  
Sea Level Pressure 29.77 in    
Wind  
Wind Speed 2 mph ()    
Max Wind Speed 16 mph    
Max Gust Speed -    
Visibility 1.9 miles    
Events      
T = Trace of Precipitation, MM = Missing Value Source: Averaged Metar Reports

Daily Weather History Graph

Daily Weather History Graph

Search for Another Location

Airport:

Trip Planner

Search our weather history database for the weather conditions in past years. The results will help you decide how hot, cold, wet, or windy it might be!

Date:

Astronomy

Sep. 20, 2012 Rise Set
Actual Time 6:14 AM IST 6:25 PM IST
Civil Twilight 5:51 AM IST 6:48 PM IST
Nautical Twilight 5:24 AM IST 7:15 PM IST
Astronomical Twilight 4:56 AM IST 7:42 PM IST
Moon 10:31 AM IST (9/20) 9:33 PM IST (9/20)
Length of Visible Light 12h 57m
Length of Day
12h 10m
Waxing Crescent, 22% of the Moon is Illuminated
Sep 20
Waxing Crescent
Sep 23
First Quarter
Sep 30
Full
Oct 8
Last Quarter
Oct 15
New

Hourly Weather History & Observations

Time (IST) Temp. Heat Index Dew Point Humidity Pressure Visibility Wind Dir Wind Speed Gust Speed Precip Events Conditions
12:00 AM 78.8 °F - 75.2 °F 89% 29.77 in 1.9 mi Calm Calm - N/A   Haze
2:00 AM 78.8 °F - 75.2 °F 89% 29.77 in 1.9 mi Calm Calm - N/A   Scattered Clouds
2:30 AM 78 °F - 75 °F 89% 29.70 in 1 mi Calm Calm - -   Mist
3:00 AM 77.0 °F - 75.2 °F 94% 29.74 in 1.9 mi Calm Calm - N/A   Scattered Clouds
4:00 AM 77.0 °F - 75.2 °F 94% 29.74 in 1.9 mi Calm Calm - N/A   Scattered Clouds
5:00 AM 77.0 °F - 75.2 °F 94% 29.77 in 1.9 mi Calm Calm - N/A   Scattered Clouds
5:30 AM 77 °F - 74 °F 87% 29.70 in 1 mi Calm Calm - -   Mist
5:30 AM 77.0 °F - 75.2 °F 94% 29.77 in 1.6 mi Calm Calm - N/A   Scattered Clouds
6:00 AM 75.2 °F - 75.2 °F 100% 29.77 in 1.6 mi Calm Calm - N/A   Scattered Clouds
7:00 AM 77.0 °F - 73.4 °F 89% 29.80 in 1.6 mi Calm Calm - N/A   Scattered Clouds
8:30 AM 82 °F - 74 °F 71% 29.74 in 1 mi Calm Calm - -   Haze
8:30 AM 82.4 °F 88.2 °F 73.4 °F 74% 29.83 in 1.9 mi Calm Calm - N/A   Haze
9:00 AM 84.2 °F 90.9 °F 73.4 °F 70% 29.83 in 1.9 mi Variable 2.3 mph - N/A   Haze
9:30 AM 86.0 °F 95.1 °F 75.2 °F 70% 29.83 in 1.9 mi NW 3.5 mph - N/A   Haze
10:00 AM 86.0 °F 95.1 °F 75.2 °F 70% 29.83 in - NW 4.6 mph - N/A   Scattered Clouds
10:30 AM 86.0 °F 95.1 °F 75.2 °F 70% 29.83 in 2.5 mi Variable 5.8 mph - N/A   Haze
11:00 AM 87.8 °F 97.6 °F 75.2 °F 66% 29.83 in 2.5 mi NW 5.8 mph - N/A   Haze
11:30 AM - - 71 °F % 29.74 in 2 mi NNE 16.1 mph - -   Haze
12:00 PM 89.6 °F 99.8 °F 75.2 °F 62% 29.83 in 2.5 mi Variable 6.9 mph - N/A   Haze
12:30 PM 89.6 °F 99.8 °F 75.2 °F 62% 29.83 in 2.5 mi Variable 5.8 mph - N/A   Haze
1:00 PM 89.6 °F 99.8 °F 75.2 °F 62% 29.80 in 2.5 mi Variable 8.1 mph - N/A   Haze
2:00 PM 89.6 °F 99.8 °F 75.2 °F 62% 29.80 in 2.5 mi NNW 5.8 mph - N/A   Haze
2:30 PM 92 °F - 71 °F 41% 29.68 in 2 mi North 5.8 mph - -   Haze
3:00 PM 91.4 °F 100.1 °F 73.4 °F 55% 29.77 in 2.5 mi Variable 4.6 mph - N/A   Haze
4:00 PM 91.4 °F 100.1 °F 73.4 °F 55% 29.74 in 2.5 mi Variable 6.9 mph - N/A   Haze
5:00 PM 91.4 °F 98.4 °F 71.6 °F 52% 29.74 in 2.5 mi NW 5.8 mph - N/A   Haze
5:30 PM 89 °F - 63 °F 31% 29.66 in 2 mi SE 5.8 mph - -   Haze
6:00 PM 87.8 °F 92.6 °F 69.8 °F 55% 29.74 in 2.5 mi Variable 4.6 mph - N/A   Haze
8:00 PM 82.4 °F 87.2 °F 71.6 °F 70% 29.77 in 1.9 mi Calm Calm - N/A   Haze
8:30 PM 82 °F - 71 °F 62% 29.70 in 1 mi Calm Calm - -   Haze
9:00 PM 78.8 °F - 71.6 °F 78% 29.77 in 1.9 mi Calm Calm - N/A   Haze
10:00 PM 78.8 °F - 71.6 °F 78% 29.80 in 1.9 mi Calm Calm - N/A   Haze
11:00 PM 78.8 °F - 71.6 °F 78% 29.80 in 1.9 mi Calm Calm - N/A   Haze
11:30 PM 78 °F - 69 °F 67% 29.74 in 1 mi Calm Calm - -   Haze